Location: Unspecified
(49.2170°N, 0.0000°E)
Time: 18:01:27
(UTC+00:00)

Transit 4A - Pass Details

Date: 20 June 2019
Orbit: 863 x 981 km, 66.8° (Epoch: 17 August)

Event Time Altitude Azimuth Distance (km) Brightness Sun altitude
Rises 06:57:47 0° 155° (SSE) 3,606 11.2 26.5°
Reaches altitude 10° 07:01:32 10° 132° (SE) 2,688 11.0 27.1°
Maximum altitude 07:04:46 15° 101° (E) 2,384 11.7 27.7°
Drops below altitude 10° 07:08:02 10° 70° (ENE) 2,726 11.8 28.2°
Sets 07:11:52 0° 48° (NE) 3,690 11.7 28.8°
